Theta_e
320 321 323 321 320 319 318 318 322 324 328 330 334 338 338 336 335 335 335 334 329 325 327 330 330 330 331 331 332 332 331 333 334 335 336 336 336 337 337 337 338 337 337 337 337 336 334 332 331 331 331 331 330 330 329 328 323 316 311 311 314 318 322 324 325 324 323 321 324 328 329 329 331 331 330 330 329 328 329 327 323 325 327 327 326
319 322 323 321 321 319 318 319 323 327 330 330 334 337 337 335 335 335 333 330 325 326 330 330 331 332 332 331 331 329 329 331 334 336 336 336 337 338 337 337 337 337 336 336 335 333 332 332 332 331 331 329 327 325 323 319 313 310 312 316 321 325 326 327 327 327 326 326 328 330 330 330 330 329 328 328 328 327 327 323 321 325 327 327 326
318 323 322 322 321 318 319 319 324 329 332 331 332 334 335 334 334 333 331 326 325 329 330 330 331 330 330 328 328 326 327 331 335 336 336 338 337 337 337 337 336 335 334 333 332 332 332 331 330 328 327 324 321 317 314 310 309 311 313 317 323 327 328 329 329 329 329 328 329 329 330 329 328 327 327 327 327 326 324 320 322 326 327 325 324
318 323 322 323 321 319 319 320 325 331 332 330 329 331 332 332 332 330 326 324 327 329 328 328 328 328 328 325 326 328 330 333 335 336 336 337 337 336 336 336 335 333 332 332 333 332 330 327 325 324 323 321 316 311 308 309 312 316 317 319 325 329 331 331 331 331 331 330 329 328 329 328 328 327 326 326 323 325 324 323 326 327 324 323 323
319 323 322 323 321 319 319 320 324 330 331 327 328 329 328 329 328 325 324 326 327 326 323 323 324 325 325 324 328 331 333 334 335 335 336 336 336 336 336 336 335 333 331 332 333 332 328 324 323 322 320 317 311 308 308 310 316 323 326 328 329 330 331 332 332 333 333 333 330 329 328 327 327 326 326 325 321 324 325 324 326 323 322 323 322
319 321 322 323 322 320 319 320 324 327 328 326 326 327 326 324 323 324 325 325 322 320 319 318 319 322 322 324 328 331 332 334 334 334 335 335 336 335 335 335 335 334 332 332 332 331 327 323 322 320 318 313 308 307 308 313 321 327 329 331 331 332 332 332 333 333 334 334 332 331 329 327 327 325 326 327 323 325 327 325 325 321 319 322 320
320 320 323 324 324 322 320 320 325 328 327 325 324 324 323 322 323 323 322 320 319 319 319 317 317 317 319 322 326 330 332 333 333 334 334 335 335 335 334 335 335 335 334 333 332 330 326 323 321 319 315 310 308 307 310 317 323 327 330 331 331 332 332 333 333 333 334 333 333 331 330 327 325 325 326 327 323 324 326 325 325 321 320 322 320
319 321 324 325 328 326 322 320 326 328 326 326 324 323 322 323 322 319 320 322 325 325 324 321 318 317 316 317 320 326 330 332 332 333 333 334 334 334 334 335 336 335 335 334 332 329 326 323 321 317 312 308 307 307 311 317 322 327 330 331 331 332 332 332 333 333 333 333 332 331 331 327 324 325 325 324 321 322 325 325 324 322 321 321 319
322 322 324 326 331 328 323 321 324 327 327 327 325 324 324 323 320 320 325 329 331 330 329 327 326 325 321 317 316 319 323 327 329 330 331 333 333 334 334 335 335 335 334 333 331 328 327 324 320 315 310 307 308 307 311 317 324 328 329 329 330 331 331 332 332 333 333 332 332 331 330 327 325 326 326 325 324 324 325 324 322 321 319 319 321
324 323 325 326 330 329 323 321 324 326 328 328 326 324 323 320 319 325 330 332 333 333 333 332 331 331 329 326 322 319 320 322 325 327 330 332 333 334 334 334 334 334 334 332 330 328 328 324 318 313 308 307 308 308 311 318 325 327 328 329 329 330 331 331 331 331 332 331 331 330 329 327 323 324 327 325 324 324 324 322 321 320 316 318 322
326 324 324 325 330 329 324 321 322 326 328 328 325 322 319 319 322 327 330 331 332 332 332 332 332 332 332 329 324 322 321 322 323 326 328 330 332 333 334 334 333 333 332 330 329 328 327 323 317 312 307 308 308 309 313 320 326 327 328 328 329 330 330 330 330 330 330 330 330 329 328 326 322 323 326 325 324 323 322 321 321 320 317 318 320
330 327 325 327 330 329 327 323 321 324 327 327 324 320 319 320 324 326 327 329 330 329 330 332 332 332 332 328 322 320 321 321 321 323 325 328 330 332 333 332 331 330 329 328 328 327 325 320 316 311 307 308 308 310 318 324 327 328 328 328 329 329 329 330 330 329 330 330 329 328 325 322 321 323 325 324 324 322 321 321 322 321 320 320 319
332 329 327 330 330 330 329 324 322 324 325 325 323 321 320 322 324 325 326 328 329 329 330 331 333 332 331 327 321 319 319 320 320 320 322 325 328 330 330 330 329 327 326 327 327 326 323 319 315 310 308 308 308 312 320 325 327 328 328 328 328 328 328 329 330 329 329 330 329 326 322 321 322 324 325 325 325 323 322 321 322 319 320 323 319
330 328 328 330 329 329 328 325 325 326 326 325 324 323 322 323 323 324 325 327 328 329 331 332 333 332 330 326 321 320 320 319 319 320 320 322 325 327 327 328 328 325 325 327 327 325 322 318 315 311 308 308 308 312 319 324 327 327 327 327 327 326 326 326 327 327 327 327 327 326 322 322 325 325 325 325 326 325 323 321 321 320 320 322 319
329 326 328 329 329 328 327 326 327 327 326 324 324 324 323 323 323 324 325 326 327 329 332 333 333 331 328 323 321 320 320 320 320 320 320 321 322 323 325 327 326 325 326 326 326 324 321 318 315 311 309 308 308 311 317 323 326 326 326 325 325 325 326 325 325 325 326 326 326 326 323 323 324 326 326 326 326 325 324 322 322 322 320 319 318
328 326 328 329 329 329 330 330 327 325 325 325 327 326 324 324 324 325 326 326 327 329 331 332 331 329 325 322 321 321 320 320 320 320 321 320 321 321 323 324 324 326 327 326 325 323 321 318 315 312 310 308 308 310 316 321 324 325 326 326 327 327 327 326 325 325 325 325 325 323 323 324 323 324 326 325 325 324 324 322 321 320 320 318 316
327 326 327 329 331 332 333 331 327 325 324 326 329 328 325 325 326 326 326 327 327 329 331 331 330 328 324 322 321 321 320 321 321 321 321 321 320 321 322 322 323 326 327 326 324 322 320 318 316 314 311 309 308 310 315 321 325 326 326 326 327 326 326 326 326 326 325 325 325 323 322 324 324 324 324 324 324 323 323 322 320 318 319 318 315
327 326 326 331 334 335 335 331 327 325 325 327 329 328 327 327 327 327 327 327 327 328 329 330 330 327 324 322 322 321 321 322 322 322 321 321 320 320 321 322 325 327 326 325 323 321 321 319 318 316 312 309 308 309 314 321 325 325 325 325 325 325 325 325 324 325 326 325 326 324 323 323 324 323 324 323 322 322 321 319 319 316 316 315 314
327 327 330 334 337 336 335 331 328 327 327 328 330 330 329 329 329 328 328 328 327 327 328 329 329 327 324 322 321 321 322 322 323 322 321 320 319 320 320 322 326 327 325 324 323 322 321 320 320 318 314 310 309 309 312 319 322 324 325 325 326 326 326 325 323 325 326 326 326 324 321 322 322 321 321 321 321 321 319 318 317 315 314 313 312
327 328 334 337 337 335 332 331 331 328 329 330 329 330 331 330 329 328 328 328 327 326 327 328 329 327 323 323 322 321 322 322 323 322 321 320 319 319 319 322 325 325 324 324 323 322 321 321 322 323 318 311 310 310 313 318 322 325 326 326 326 326 327 326 325 325 324 323 322 320 318 320 321 320 320 321 322 320 319 319 317 315 316 314 310
332 331 335 337 337 335 332 332 333 331 331 331 330 331 332 331 330 330 329 328 328 326 327 329 329 325 322 323 322 321 322 322 323 323 321 319 319 318 319 322 324 324 324 324 323 322 322 323 326 328 324 316 314 315 317 320 322 325 325 325 325 325 325 325 326 324 323 321 318 318 319 320 320 320 320 320 321 320 318 318 316 316 316 311 308
335 333 334 336 336 336 334 333 334 334 333 332 332 331 331 331 330 330 330 330 329 326 327 329 328 325 325 327 327 326 324 323 323 322 321 319 318 318 319 321 322 323 324 324 324 323 324 328 330 331 329 326 323 322 323 323 324 325 325 325 325 326 325 325 326 325 323 319 314 317 321 320 318 318 318 318 319 318 316 315 315 316 315 310 307
336 335 334 335 336 336 336 334 334 335 334 333 333 331 331 332 331 331 331 331 329 326 327 330 330 329 330 332 334 333 327 324 323 322 321 319 318 318 319 321 322 324 324 325 324 325 329 331 333 332 332 332 331 330 329 328 327 327 326 326 326 327 326 325 326 325 324 318 311 314 320 319 318 317 316 316 317 317 316 313 314 315 314 310 307
337 336 335 336 337 337 337 336 335 335 335 334 333 331 332 333 332 332 332 332 330 328 329 332 332 333 335 335 336 336 331 325 324 323 321 318 318 318 320 322 323 325 325 325 326 329 331 332 333 333 333 333 333 333 333 331 330 329 327 327 327 327 327 326 326 326 324 318 313 312 315 316 314 315 315 314 315 316 316 313 311 313 312 309 306
339 337 336 337 336 335 337 337 336 336 337 335 334 333 333 334 334 334 333 333 332 331 332 333 334 335 337 336 335 336 331 326 326 324 320 319 318 319 321 323 324 326 326 326 328 331 332 333 333 333 332 332 332 333 333 332 330 330 328 328 328 328 328 327 327 327 325 321 316 312 312 313 311 311 314 314 313 314 314 312 312 312 308 308 308
338 337 336 336 335 334 336 337 336 336 336 335 335 335 334 335 335 334 334 333 333 333 333 334 335 335 336 336 335 334 328 325 326 325 321 318 319 320 322 324 326 327 327 328 331 332 333 333 334 333 333 332 332 332 332 331 330 330 329 328 329 328 328 328 328 326 325 323 320 315 312 311 311 311 314 314 313 313 312 310 312 311 308 309 309
337 337 335 336 337 335 335 336 334 334 334 334 336 336 335 335 334 334 333 333 335 334 334 334 335 335 336 335 335 335 331 330 331 330 326 321 322 324 324 326 330 332 331 333 333 334 334 334 334 334 333 333 332 332 331 331 331 330 330 330 329 329 328 328 328 326 324 324 322 320 318 315 314 313 314 313 313 313 313 311 310 309 309 310 308
336 335 335 336 336 335 334 336 335 334 335 335 336 335 335 335 334 335 334 334 335 335 335 335 335 336 336 336 336 336 335 335 335 334 331 328 329 331 330 331 334 335 335 335 334 335 335 335 334 333 333 333 332 332 331 331 331 330 330 330 329 329 329 328 329 327 324 324 322 322 322 320 319 318 317 316 316 315 315 315 313 310 309 310 307
334 335 335 335 335 335 334 335 336 335 334 335 336 335 335 334 334 335 335 334 336 336 336 336 335 335 336 336 336 336 336 336 336 336 335 334 335 334 334 334 335 335 335 335 335 336 336 336 335 334 333 333 333 333 332 331 330 330 330 329 329 329 328 327 328 327 324 323 323 321 321 321 321 320 320 320 321 320 319 318 317 314 309 308 307
335 336 335 334 334 334 332 332 333 335 334 333 334 335 335 334 333 335 335 334 336 336 335 335 333 334 335 335 336 336 335 336 335 336 336 335 335 335 335 334 335 335 335 335 335 336 336 336 335 335 334 333 334 333 334 332 329 329 330 330 329 329 328 327 328 328 324 323 324 322 321 320 320 320 320 320 321 322 322 322 321 319 314 310 308
338 338 337 335 335 331 329 328 328 332 333 332 331 332 335 335 333 334 334 333 335 335 334 333 333 334 334 334 335 335 336 336 335 336 336 334 334 336 336 334 334 335 335 335 335 336 335 335 335 335 335 334 334 333 334 333 329 328 329 330 329 329 330 329 328 328 326 325 326 325 323 322 322 322 321 321 321 321 321 322 322 323 321 318 314
338 339 337 336 335 333 330 329 327 328 330 331 331 332 335 336 335 335 334 331 331 332 332 334 336 336 334 333 333 333 335 335 335 337 336 335 334 334 335 335 334 334 334 335 335 336 335 336 336 335 336 335 334 335 334 333 332 330 329 330 329 329 331 330 330 330 329 328 328 326 325 325 324 324 324 324 323 322 321 321 321 322 323 323 321
339 338 336 336 337 336 334 333 332 332 333 333 334 335 336 335 335 334 334 332 330 331 331 334 337 336 333 332 332 332 332 333 335 337 336 336 335 333 335 335 334 334 334 335 335 336 335 335 335 335 335 335 335 335 335 334 334 333 332 332 331 331 331 330 330 330 330 330 328 327 327 328 327 326 326 326 326 325 324 323 322 322 323 324 324
335 336 337 337 337 338 336 335 334 334 336 336 335 336 335 333 333 333 333 332 330 331 330 332 335 334 330 330 332 332 331 331 333 335 337 336 334 334 335 336 335 335 334 335 336 336 335 334 334 334 333 335 336 335 334 335 335 334 334 334 333 333 333 331 331 330 330 331 330 330 329 328 329 329 328 327 327 327 327 326 325 324 324 324 325
335 336 338 337 336 337 336 335 334 333 335 335 334 334 333 333 334 333 332 329 330 332 329 329 333 333 330 329 331 332 331 332 331 332 335 336 335 333 334 336 336 335 335 336 336 335 335 335 334 333 332 334 336 335 334 335 335 335 334 335 334 334 334 334 333 332 332 332 331 332 331 330 330 329 329 329 328 328 327 327 327 327 326 326 326
339 339 339 338 336 336 335 334 333 333 334 333 333 333 333 333 334 334 331 327 329 331 327 326 328 330 332 331 332 332 331 333 333 330 331 335 336 334 333 334 336 336 336 336 336 335 335 335 334 333 332 333 334 334 335 335 335 335 334 335 334 334 335 334 334 334 334 334 332 332 333 332 331 328 328 329 329 329 328 328 328 328 328 328 328
340 339 339 338 336 336 336 335 334 333 333 333 333 333 332 333 333 333 331 328 329 329 327 327 326 328 333 333 334 333 331 332 333 331 328 330 334 336 334 332 334 336 335 335 336 335 335 335 334 332 332 332 333 334 334 335 335 335 334 335 334 333 335 335 335 335 335 335 334 333 332 332 331 328 328 329 329 330 329 328 329 328 328 328 329
339 339 337 336 336 336 335 335 335 333 333 333 332 332 332 332 331 331 330 329 330 331 330 330 329 330 332 333 334 332 330 331 332 331 329 328 330 334 335 334 333 333 333 334 335 334 335 335 334 333 332 332 332 333 333 334 335 335 335 336 334 333 335 335 335 335 335 336 336 335 334 334 333 331 331 331 330 330 330 329 329 328 328 328 329
337 338 337 336 335 335 335 335 334 333 333 332 331 332 332 332 331 330 329 327 329 331 331 332 332 331 331 332 332 330 328 330 330 330 331 330 330 332 335 335 333 333 333 333 334 335 335 335 335 334 333 332 332 333 333 333 335 335 336 337 336 335 336 337 337 336 336 336 336 336 336 335 335 334 334 333 332 332 332 332 331 330 329 329 329
336 337 337 337 336 335 335 334 334 333 332 332 332 332 333 333 331 330 329 328 328 329 330 332 333 332 332 331 328 326 325 327 329 330 330 331 331 331 333 335 334 334 334 333 335 336 334 334 336 335 334 333 333 333 333 333 335 335 336 337 336 336 336 337 338 337 337 337 337 336 336 336 336 336 336 336 336 336 335 334 333 333 333 332 332
335 336 336 336 336 335 334 334 334 333 332 332 332 332 332 333 332 329 329 329 329 329 329 331 333 333 332 331 329 325 321 322 325 327 330 330 330 330 331 333 334 334 334 334 333 334 332 331 334 335 335 334 333 333 333 334 336 336 336 335 335 335 335 335 335 336 337 338 338 337 337 337 336 336 337 336 337 337 337 336 334 334 334 334 334
334 334 335 335 335 335 334 333 333 333 333 333 333 332 332 331 331 329 330 331 330 330 330 330 331 332 332 332 331 328 325 323 322 323 327 330 331 331 330 331 333 332 332 332 332 333 331 328 331 332 333 334 334 334 334 335 336 336 336 335 334 334 335 334 334 334 336 338 338 338 338 338 337 337 337 336 337 337 337 337 336 335 335 335 335
334 334 332 331 330 330 330 329 329 330 331 333 334 334 333 333 332 331 331 332 332 331 331 331 330 331 332 332 331 330 329 328 327 325 324 327 330 331 330 329 331 331 331 330 330 331 331 329 329 328 329 333 335 336 336 335 335 335 334 334 334 334 335 334 332 333 335 337 337 337 337 337 336 336 336 336 337 337 337 337 337 336 336 336 335
334 333 332 330 326 323 324 324 324 325 326 328 331 332 333 333 333 333 333 333 332 332 331 331 332 332 332 332 331 330 329 329 329 328 327 328 329 329 328 328 329 331 331 330 329 329 329 328 328 329 329 330 333 335 334 333 335 335 334 334 333 334 335 333 331 332 334 335 336 335 335 335 335 335 335 336 336 337 338 338 337 337 337 336 336
334 333 333 332 327 323 322 321 319 320 321 323 326 327 328 330 332 333 334 334 334 333 333 333 333 333 332 332 331 331 331 329 327 328 329 329 329 328 326 327 328 330 330 330 329 328 328 327 327 330 329 326 328 330 330 332 335 335 334 334 334 334 333 333 332 333 333 333 334 334 334 334 335 335 335 335 336 337 338 338 337 337 337 336 336
333 331 333 333 329 325 325 325 322 318 318 319 320 322 324 326 329 331 333 334 334 334 334 334 335 334 334 333 332 331 331 330 328 327 328 327 326 326 327 327 327 329 330 328 326 326 326 326 327 328 328 327 327 328 330 333 334 334 334 334 335 335 334 334 334 334 334 332 333 334 335 334 334 334 335 335 335 336 336 337 338 338 337 336 335
327 326 330 331 328 326 326 328 329 325 320 318 317 318 320 323 325 327 330 332 334 335 335 335 335 335 335 334 333 332 331 332 331 330 329 327 325 323 325 328 327 327 329 328 325 324 324 325 327 329 328 328 328 329 330 332 332 332 333 333 333 334 334 334 334 334 335 334 333 333 334 334 334 334 335 335 335 335 336 337 338 338 339 338 337
326 325 325 325 323 323 323 326 328 326 321 319 319 319 320 321 322 324 326 327 330 332 334 335 334 334 334 334 333 332 331 331 331 331 330 328 327 325 324 326 327 327 328 328 325 324 324 324 327 331 330 329 330 329 327 328 330 330 333 333 333 333 333 333 333 333 335 336 334 332 331 332 333 333 333 333 334 335 336 338 338 338 338 338 337
330 328 325 325 324 325 327 328 327 324 321 318 318 319 321 322 323 324 325 325 326 328 331 334 334 334 334 334 333 332 332 331 331 331 330 328 329 329 328 326 326 326 328 329 327 326 326 324 325 328 329 330 331 328 326 325 328 331 333 333 333 334 333 332 333 334 336 336 335 332 331 330 330 330 331 332 334 335 336 337 337 337 337 336 337
328 328 326 326 326 326 328 330 329 328 327 320 316 318 319 321 323 324 325 325 326 329 331 333 334 334 334 334 334 333 333 333 332 331 331 329 328 329 330 329 327 327 328 330 330 329 327 324 325 325 326 329 330 328 325 325 328 331 331 331 332 334 334 334 334 336 336 336 336 335 333 332 330 330 332 333 333 334 336 337 337 336 336 336 335
326 326 325 326 327 327 327 330 329 327 325 319 315 317 318 319 322 322 324 325 326 329 332 333 334 335 334 334 334 333 333 333 333 332 332 332 329 329 330 330 330 329 329 329 330 330 327 326 327 327 325 327 330 329 326 326 328 330 330 331 332 333 334 334 335 336 336 335 336 336 334 333 332 331 332 333 333 335 337 337 336 335 335 335 335
Wind_Speed
20 21 20 18 16 15 14 15 15 15 14 14 15 16 16 16 15 13 12 12 12 13 14 15 16 17 18 18 18 18 17 17 16 15 15 15 15 16 18 18 19 19 19 18 17 16 13 13 11 10 9 8 7 6 6 5 6 7 11 15 19 21 23 23 23 22 20 19 21 22 21 19 17 16 15 15 14 15 14 11 14 18 20 18 16
22 21 20 18 16 15 14 15 15 15 14 13 14 15 16 15 14 12 12 12 13 15 15 16 16 17 18 18 17 17 17 16 16 16 17 17 18 18 21 22 21 21 20 18 15 14 13 12 11 9 9 8 7 7 6 6 9 13 18 21 24 24 24 24 24 24 23 22 22 21 19 18 17 15 13 12 11 11 10 10 14 18 18 15 13
23 21 20 18 16 16 15 15 15 15 14 13 14 14 15 14 13 12 12 13 14 15 15 15 16 17 17 18 17 17 17 17 17 17 19 19 19 20 22 22 21 20 18 16 14 14 13 12 10 10 9 8 8 7 8 10 15 18 20 21 24 25 24 24 23 23 21 21 20 19 18 17 16 15 13 10 10 9 8 11 16 17 14 12 11
22 22 20 18 16 17 16 15 15 14 14 14 14 14 14 13 13 12 13 14 14 14 14 15 15 17 18 19 19 18 19 19 18 18 19 19 19 20 20 20 19 18 17 15 14 13 12 11 10 10 9 9 8 9 11 15 19 21 22 21 23 24 25 24 23 22 20 19 17 17 16 16 16 14 13 10 10 12 13 15 16 14 13 12 12
23 23 21 18 18 18 17 16 15 15 14 14 14 14 14 13 13 13 14 14 14 14 14 15 15 16 18 20 20 19 20 20 18 18 18 18 19 18 18 18 17 17 16 15 14 13 12 11 10 10 10 9 10 12 15 19 22 25 26 24 23 23 24 24 22 21 18 16 15 15 13 14 15 15 14 11 13 15 16 16 15 12 13 13 11
25 23 22 19 19 18 17 16 16 16 16 15 15 14 14 14 14 14 14 14 14 14 15 15 16 17 19 21 21 19 19 19 18 18 17 17 18 17 17 17 16 15 15 14 12 11 10 11 11 10 10 10 11 14 17 22 25 26 26 25 24 23 24 24 22 19 16 14 15 14 12 11 12 15 15 11 14 17 16 16 14 12 13 12 12
24 22 21 20 20 18 17 17 17 17 17 16 16 15 14 14 14 15 15 15 15 16 16 16 17 18 19 21 20 19 18 18 18 18 17 16 16 16 15 16 15 14 15 14 11 10 9 10 11 11 11 11 12 15 20 23 25 25 25 24 24 24 24 23 21 18 15 14 13 12 9 8 9 15 14 10 12 14 15 14 12 10 11 12 13
23 22 20 20 18 16 16 17 18 18 18 17 17 16 15 15 15 16 17 17 17 17 17 17 18 19 19 19 19 19 18 17 16 15 15 15 14 14 13 14 14 13 14 13 11 10 9 10 11 11 10 11 12 16 20 24 25 26 25 24 24 24 24 23 20 18 16 14 12 12 9 8 9 14 13 10 12 13 13 12 10 10 12 13 13
21 21 20 19 15 13 15 16 19 19 19 18 17 16 16 16 16 17 17 17 17 17 17 17 18 18 18 18 17 17 16 15 14 14 13 13 13 13 12 12 12 12 13 12 10 10 9 9 10 10 10 11 13 17 21 25 26 27 26 25 25 25 24 22 20 19 16 14 13 13 11 10 9 13 13 11 12 12 10 9 9 10 12 14 14
21 21 20 17 13 12 15 16 19 19 18 18 17 16 16 17 17 17 17 17 16 16 17 17 18 18 17 16 15 14 14 14 14 13 12 12 12 12 12 11 11 11 11 10 9 8 8 9 9 10 10 12 14 18 22 25 27 27 27 26 25 24 23 21 19 17 13 11 11 12 10 6 6 11 11 9 10 9 7 7 8 9 12 15 14
22 22 20 16 15 14 16 17 18 19 18 18 17 18 18 18 17 16 16 16 15 15 16 16 16 16 16 15 14 13 12 12 12 13 12 12 12 11 11 11 11 10 10 8 8 7 7 8 9 9 11 13 15 19 22 25 27 27 26 25 24 23 21 20 20 15 11 11 8 6 4 1 3 9 9 6 6 5 5 7 9 9 11 13 13
21 21 20 17 17 17 16 17 18 18 18 18 18 19 19 18 17 16 16 15 15 14 14 15 15 15 15 14 13 12 11 11 11 11 12 13 12 11 11 11 10 9 10 9 8 7 7 7 8 9 11 13 16 20 23 26 27 27 26 25 24 23 20 20 19 13 10 11 5 1 1 2 6 10 9 8 6 5 6 9 11 10 12 12 11
21 20 21 19 19 17 16 17 18 18 18 18 18 19 18 18 17 16 15 14 14 14 14 14 14 14 14 13 12 12 12 12 11 10 11 12 12 11 11 10 9 9 10 9 8 7 7 7 8 10 12 14 17 20 23 25 26 26 26 25 24 23 21 20 17 13 12 10 5 2 5 9 12 12 11 11 9 7 7 8 10 9 11 11 11
21 22 22 21 19 18 17 16 17 17 17 18 17 17 17 17 16 15 14 13 13 13 13 13 14 13 13 12 12 12 12 12 11 10 10 11 12 11 11 10 10 11 11 10 8 8 8 7 8 10 12 14 17 19 21 24 25 25 25 25 24 23 22 19 15 13 12 9 4 4 6 11 13 12 11 10 8 7 7 8 9 9 10 10 10
22 24 23 21 20 18 17 16 16 16 16 17 17 17 17 16 15 15 14 13 13 13 13 13 13 13 12 11 11 11 11 11 10 9 10 11 11 11 11 10 11 12 12 10 9 8 8 8 8 9 11 14 16 18 20 23 24 25 25 23 21 20 19 18 15 14 13 11 6 3 7 11 12 12 10 9 8 7 7 8 9 10 9 8 9
22 24 23 22 21 19 17 16 16 16 16 16 15 16 16 15 15 14 14 13 12 12 13 13 13 12 11 11 11 11 11 10 9 8 9 10 11 12 11 11 12 13 12 10 9 8 8 8 8 9 11 13 14 17 19 22 24 24 22 20 18 17 16 17 15 11 10 9 5 2 7 11 11 11 9 9 7 6 7 7 8 9 8 7 8
23 23 23 22 20 18 16 15 15 15 15 15 14 14 14 14 14 14 14 13 12 12 13 13 12 12 11 11 11 11 11 10 9 8 8 10 11 12 12 13 13 13 12 11 9 8 8 8 9 9 10 11 13 15 18 21 22 22 21 20 19 18 18 18 14 9 7 6 5 5 8 12 11 10 9 8 7 6 7 8 8 8 8 7 7
23 23 22 21 19 17 15 14 14 15 14 14 12 13 13 13 14 14 14 13 12 12 12 12 11 11 10 10 11 11 11 10 9 9 9 10 11 13 14 14 14 13 12 11 9 9 9 9 9 10 10 11 12 14 18 20 21 21 21 21 20 20 18 16 12 9 7 5 4 3 5 10 11 10 9 8 8 7 6 7 7 7 7 7 8
24 22 20 17 17 16 15 15 15 15 14 13 12 12 13 13 14 14 14 13 12 12 12 11 11 10 10 10 10 11 10 9 9 9 10 10 12 15 15 14 13 13 12 11 10 10 10 10 11 12 12 13 14 15 18 20 21 21 21 21 19 17 16 15 13 8 5 4 4 4 4 9 10 9 8 8 8 7 6 6 7 7 6 7 8
24 23 20 16 16 16 14 15 16 16 15 13 12 12 13 13 14 14 13 13 13 13 12 12 11 11 10 10 10 10 9 9 8 9 10 12 14 16 16 15 14 13 11 11 10 10 11 12 13 14 15 15 16 17 19 21 22 22 21 20 18 17 15 12 9 5 3 3 4 6 8 9 10 9 8 8 8 7 7 7 6 6 7 7 8
23 23 21 17 17 17 15 15 16 16 16 14 13 13 14 14 13 13 13 13 13 13 13 13 12 11 11 10 10 10 9 8 8 9 11 13 15 15 15 15 14 13 11 11 10 11 12 13 14 14 16 17 19 19 19 19 19 19 19 18 19 19 14 6 3 1 2 1 3 9 10 9 9 9 8 8 7 6 6 6 5 7 7 7 8
21 22 22 19 17 17 16 15 14 15 16 15 13 13 13 14 13 13 13 12 12 12 13 13 12 12 11 10 9 8 8 7 7 9 12 14 15 15 15 14 14 13 11 10 11 13 13 13 13 13 14 16 17 18 18 17 17 17 16 16 18 17 13 8 6 3 1 1 4 9 10 9 9 8 8 7 6 6 5 5 5 7 7 6 7
21 22 23 21 18 18 18 16 16 15 15 14 14 14 13 14 13 13 13 13 13 13 14 13 12 11 10 10 8 7 6 5 6 10 13 14 15 15 15 14 13 12 11 11 13 14 14 14 14 13 13 13 13 15 15 14 13 12 13 16 16 13 10 8 4 2 4 4 1 8 9 9 8 7 7 6 6 5 5 5 5 6 7 7 6
22 22 22 21 20 19 19 18 17 16 16 15 15 15 15 14 13 13 13 13 14 15 14 13 12 11 9 10 9 7 5 4 5 8 12 14 14 15 15 14 13 11 11 13 14 14 14 14 13 13 14 13 13 12 10 10 10 8 10 16 15 12 10 7 4 5 4 3 3 4 7 7 7 6 6 7 6 6 5 4 5 5 5 5 5
22 22 20 19 19 19 19 18 17 16 16 15 15 16 16 15 15 14 14 14 14 15 14 13 13 12 10 10 9 6 5 4 4 7 12 14 14 14 15 13 12 11 12 14 15 13 12 12 11 12 13 14 14 12 7 6 7 5 6 12 14 13 11 9 5 5 3 5 5 2 5 6 5 5 5 6 6 5 5 3 4 5 4 6 6
20 21 20 18 17 17 19 18 17 16 14 14 15 17 16 16 15 13 13 14 13 13 13 12 13 12 11 11 9 6 6 5 4 8 12 13 13 13 14 13 12 11 12 14 11 9 9 10 10 10 11 13 12 10 7 5 4 4 5 9 12 12 11 11 6 2 3 6 6 4 4 6 5 5 5 6 5 4 5 4 4 4 3 6 7
20 20 19 18 17 17 18 17 16 16 15 14 14 15 15 15 13 12 12 12 12 11 10 10 12 12 12 13 11 7 6 5 4 7 10 12 13 13 12 12 10 8 9 10 7 6 9 10 9 9 9 10 9 8 8 8 6 5 6 6 8 8 8 11 6 1 7 8 7 7 5 5 5 5 6 5 6 5 4 4 4 4 3 5 7
21 21 19 18 17 16 15 14 15 16 15 14 13 13 14 13 12 12 11 11 12 11 9 9 11 11 12 13 12 9 5 5 6 5 7 10 10 10 10 7 6 5 6 7 5 6 9 10 9 8 8 8 9 8 8 10 9 7 6 4 5 6 5 9 8 1 6 8 8 8 7 6 4 4 5 5 5 5 4 3 3 4 4 5 7
19 20 19 17 15 15 13 12 14 14 13 13 12 11 12 11 10 11 10 10 10 11 10 10 11 11 12 12 11 10 6 6 7 6 5 8 7 8 9 7 5 4 5 6 6 7 8 9 9 9 9 9 8 7 7 10 12 11 8 4 3 4 4 7 9 1 4 7 7 8 8 7 6 4 4 5 4 4 3 3 4 3 4 6 7
17 17 18 16 16 16 13 12 14 14 14 14 12 10 13 13 12 11 10 9 8 10 11 10 11 11 11 12 11 11 9 7 8 6 6 7 9 8 8 8 8 7 6 6 6 7 9 9 9 8 10 10 7 7 7 7 10 13 11 7 3 2 3 9 11 3 2 6 7 6 8 9 9 8 6 5 4 4 3 3 4 3 4 6 7
17 16 17 17 17 16 13 13 13 13 13 13 12 11 13 13 13 10 8 9 6 7 9 9 11 10 9 11 11 13 12 9 9 8 7 7 9 10 8 7 8 8 8 8 7 7 8 9 9 7 8 8 6 7 5 5 8 11 12 12 9 5 4 5 7 3 3 4 4 4 8 9 10 10 9 7 6 5 4 4 4 4 4 4 5
20 19 18 17 19 17 15 16 14 14 13 11 11 12 13 12 11 8 7 8 6 6 8 8 9 8 8 9 11 13 12 12 10 7 7 6 8 11 11 8 8 8 8 9 8 7 7 8 8 8 7 6 6 7 4 3 4 6 9 10 10 9 8 6 5 5 5 3 1 3 6 8 8 9 9 9 8 6 5 5 5 5 5 4 4
21 20 18 17 20 19 19 19 17 17 16 14 15 14 13 14 12 9 7 8 8 10 9 8 8 7 8 7 8 11 11 12 12 8 6 6 7 10 10 8 8 8 8 8 8 8 8 8 8 8 8 6 6 7 5 5 3 2 5 4 5 7 10 12 12 11 9 6 3 4 5 5 6 6 7 8 8 7 7 7 6 6 6 6 4
19 18 17 17 19 19 20 22 21 20 18 17 19 17 16 16 15 15 11 8 9 10 9 7 7 7 7 7 7 10 10 10 12 10 7 6 7 8 8 7 8 9 9 8 8 9 8 7 8 8 9 8 6 5 6 8 5 3 4 3 2 4 7 9 10 12 11 8 5 3 2 4 4 4 5 6 6 6 6 6 6 6 6 6 5
19 20 19 18 19 19 19 21 21 22 20 19 19 18 17 16 15 16 14 12 11 8 8 8 7 7 7 7 6 8 9 8 10 11 9 7 7 7 9 8 9 10 10 8 7 8 7 7 8 7 8 9 8 6 6 7 7 5 6 5 4 4 5 6 6 7 7 7 6 5 3 1 1 3 4 4 4 5 4 4 5 5 6 6 5
17 19 19 18 18 18 17 18 18 20 20 19 19 18 17 15 14 13 13 13 12 10 9 8 7 7 7 6 6 7 8 9 10 12 12 9 6 7 9 9 10 10 9 8 7 7 6 7 8 7 7 8 9 9 7 7 8 7 7 7 6 4 5 5 5 5 5 5 4 5 6 5 3 2 3 3 3 3 2 3 3 4 4 4 4
15 15 15 16 17 17 16 16 16 18 18 17 18 18 16 15 14 11 10 11 11 10 10 8 7 7 7 5 6 8 8 9 10 11 12 12 8 6 8 9 11 11 10 8 9 9 6 6 7 7 7 9 10 10 8 7 8 7 8 7 6 5 5 5 6 6 6 6 4 4 5 5 4 3 1 1 1 2 1 1 2 2 3 2 3
15 13 13 14 14 14 15 14 15 15 16 16 16 15 14 14 14 12 10 9 9 9 9 8 7 7 6 5 5 8 8 8 10 10 11 12 11 9 8 9 11 11 11 9 10 10 8 7 6 7 8 9 10 10 9 8 8 7 7 7 7 5 5 7 8 6 6 7 6 5 5 4 4 4 4 4 3 1 1 1 1 0 1 1 1
15 14 13 13 11 11 12 12 12 12 13 14 13 12 12 12 12 12 11 10 9 9 9 8 7 7 6 5 7 8 8 8 10 11 11 12 13 13 11 10 11 11 11 10 10 11 10 9 6 7 8 8 9 10 8 8 8 7 7 8 8 5 5 7 7 6 6 7 7 7 6 6 5 5 6 6 5 4 2 1 3 3 2 2 2
16 14 13 13 12 10 9 9 9 9 9 10 11 11 11 11 11 12 11 10 10 9 8 8 7 6 4 5 9 11 11 10 9 10 12 13 14 14 13 12 11 11 11 11 12 10 10 8 6 7 8 7 8 9 9 7 6 6 7 8 7 6 6 7 7 8 8 8 8 8 7 7 8 6 7 8 6 7 7 5 5 4 5 5 5
15 14 13 13 12 11 10 9 8 7 6 7 8 8 9 9 10 11 10 11 11 10 9 8 8 7 7 7 9 12 13 14 13 11 12 13 14 15 15 14 13 12 11 11 12 10 8 9 7 8 9 8 8 9 9 6 5 7 8 7 7 7 7 7 8 9 10 9 8 7 8 8 8 6 7 8 8 8 10 10 8 7 6 5 5
14 13 13 13 13 12 11 11 10 8 7 5 5 6 6 7 8 9 9 10 11 11 10 10 10 11 11 11 11 12 13 15 16 14 13 13 14 14 15 16 15 14 13 12 12 10 9 9 9 9 10 10 9 10 9 7 7 7 7 8 8 8 8 7 7 8 8 8 6 6 7 8 7 7 8 8 7 8 10 11 11 10 8 7 6
14 13 13 14 13 12 11 11 10 9 9 7 6 5 4 4 6 8 9 10 10 11 11 11 13 13 13 12 12 13 13 13 15 16 15 14 14 14 15 16 16 15 15 14 13 11 10 9 10 11 12 13 12 12 11 10 9 7 7 8 7 8 8 8 8 7 7 7 7 6 6 6 6 7 9 7 7 8 10 11 12 11 10 9 10
13 14 14 14 13 13 13 12 11 9 8 7 7 6 4 3 4 5 7 8 9 11 12 13 13 13 13 12 11 13 14 13 14 14 14 13 13 15 15 15 16 15 15 16 14 13 12 10 11 11 12 13 14 12 12 12 10 8 7 7 6 7 8 8 8 7 6 7 7 6 6 7 6 7 9 9 8 9 9 10 11 11 10 10 10
12 13 14 13 12 13 14 13 11 10 8 7 7 5 5 4 3 3 4 6 8 11 12 13 13 14 15 14 13 15 15 15 15 13 13 13 13 14 15 15 15 15 16 16 16 15 14 12 11 12 14 14 13 13 12 12 11 8 8 7 6 6 8 7 5 6 7 6 6 7 7 8 9 10 11 10 9 9 9 9 9 10 10 10 9
12 13 14 12 11 12 13 11 9 9 9 8 7 5 5 4 4 3 3 4 6 8 9 10 11 13 15 15 15 16 16 17 17 15 15 17 16 15 15 16 15 15 16 17 17 16 17 15 11 11 15 15 13 14 14 12 11 9 9 10 8 6 6 4 4 6 6 6 9 10 11 12 12 12 11 9 7 8 8 7 8 8 9 8 8
12 14 15 13 12 12 12 10 8 7 7 7 7 5 5 5 5 5 4 4 5 6 6 8 10 11 13 15 15 16 17 18 17 17 17 18 18 17 16 15 15 15 16 17 17 17 18 17 12 10 13 15 15 17 16 15 13 10 9 11 10 9 7 5 7 7 7 8 9 11 13 13 12 11 10 8 6 7 6 6 7 8 8 8 8
11 13 14 13 12 12 11 10 9 6 6 6 6 6 4 4 5 6 6 7 8 7 7 9 11 11 12 13 14 16 17 18 18 17 16 17 17 18 18 17 16 16 17 17 17 17 18 17 14 11 12 15 16 17 18 16 15 12 9 10 11 11 10 9 9 8 9 10 8 8 10 12 12 10 9 7 6 7 6 5 7 8 8 8 6
12 12 12 11 11 10 9 8 7 6 5 5 4 5 4 3 4 5 6 7 9 9 9 10 11 11 11 12 13 14 15 18 19 18 18 18 17 17 18 18 17 18 18 18 17 18 18 16 16 15 13 15 17 18 18 18 17 13 9 11 13 12 10 10 10 10 10 10 8 7 7 9 10 9 8 7 6 7 6 6 8 7 7 6 5
12 12 11 10 9 9 8 8 6 5 4 3 3 4 3 3 3 5 5 7 9 9 9 9 10 11 11 12 13 13 13 16 19 19 20 20 20 19 19 18 17 17 18 18 19 19 18 16 15 16 15 15 17 19 19 19 18 15 11 12 14 12 10 10 11 11 11 9 9 9 7 7 7 6 6 5 4 6 6 8 9 6 6 7 5
14 12 11 10 9 7 8 8 6 6 5 3 3 3 4 4 4 6 7 8 9 10 10 9 10 11 11 12 12 13 13 15 17 19 19 21 22 22 21 19 18 17 17 18 19 20 19 17 16 17 17 17 18 19 19 20 20 17 13 13 14 12 11 11 11 10 11 9 9 10 8 7 6 4 2 2 3 4 4 6 8 5 6 5 3
Wind_Direction
145 137 129 125 121 119 121 124 126 126 126 124 123 128 132 135 132 125 116 107 106 107 108 104 101 100 98 96 93 90 86 83 81 83 85 87 92 95 96 99 101 100 102 103 102 100 93 86 85 82 79 77 73 72 67 60 57 62 73 78 81 82 81 78 73 68 68 77 84 84 82 83 85 87 85 83 81 77 75 70 75 77 75 75 74
144 138 129 125 121 119 121 124 126 126 126 126 124 127 130 132 129 122 116 111 111 110 109 107 105 102 99 97 93 93 91 87 86 88 90 93 98 99 99 100 102 101 101 102 99 95 89 87 86 81 78 72 66 63 64 64 71 79 84 87 89 86 82 78 73 68 68 76 83 85 86 87 88 86 87 91 92 86 78 74 82 84 82 82 82
143 135 128 125 122 120 120 122 124 125 126 129 127 128 130 129 125 121 116 114 114 112 111 111 110 106 102 98 95 95 93 91 91 94 95 98 102 101 102 104 103 100 99 99 96 93 91 87 81 75 69 60 56 61 71 78 80 85 90 93 92 88 82 78 75 72 70 73 80 86 89 87 84 84 84 87 86 79 75 77 83 88 89 85 79
142 133 130 125 122 118 116 120 122 126 127 130 129 128 129 127 125 121 118 118 117 116 116 116 114 110 105 101 99 97 95 94 96 97 98 101 102 101 103 106 105 101 98 97 96 93 87 78 72 66 60 56 57 70 80 84 85 87 91 92 92 91 85 79 74 72 71 69 74 82 85 85 83 78 73 73 77 79 82 85 86 88 88 80 73
145 136 132 128 122 116 115 120 125 128 130 131 130 129 129 127 125 122 120 120 120 120 119 118 117 113 108 105 103 99 96 98 100 99 100 102 102 101 103 104 103 99 96 95 93 88 79 69 65 60 56 58 64 78 86 88 90 91 92 91 90 91 87 83 78 73 71 63 66 74 78 85 84 72 67 68 74 81 84 86 87 83 82 76 72
145 138 135 131 121 118 117 121 127 129 131 132 131 131 130 129 126 124 123 122 122 121 119 118 116 113 109 107 106 101 98 99 102 102 101 102 103 104 104 105 105 102 98 92 89 81 71 65 61 58 55 59 70 84 91 93 95 94 92 90 88 86 84 84 83 80 77 65 59 62 67 80 79 68 68 67 72 82 83 83 82 77 78 73 70
141 138 137 131 122 120 121 123 128 130 132 132 133 134 133 132 130 128 126 125 123 121 118 116 113 109 107 107 107 105 102 102 104 104 103 102 102 102 102 106 107 106 101 96 88 77 67 62 59 57 57 63 77 90 97 100 98 94 90 87 86 83 82 81 81 82 81 73 65 66 61 66 71 70 75 72 70 84 88 89 85 76 78 72 71
139 140 138 131 122 121 123 126 128 131 134 134 135 135 135 134 133 131 128 127 123 121 118 115 111 106 105 106 108 110 109 109 108 107 107 107 105 102 103 105 106 104 100 96 87 74 66 59 59 60 62 72 84 96 103 103 98 96 94 92 90 86 84 82 81 79 75 72 70 76 65 54 58 64 80 86 73 80 91 99 92 81 82 76 72
140 144 143 137 122 124 128 127 129 132 134 135 135 134 135 135 135 133 130 128 125 122 119 115 109 105 105 106 110 113 116 117 117 116 115 114 111 109 109 106 106 104 97 93 83 72 68 60 62 64 71 82 89 100 106 104 102 101 98 94 92 87 85 84 84 83 83 84 85 89 83 72 65 64 75 86 85 87 91 102 93 78 83 80 68
150 151 149 147 135 135 134 130 131 132 134 134 134 135 136 136 137 135 132 128 126 124 120 115 109 106 105 105 108 113 120 123 124 125 125 121 117 116 115 111 108 104 98 94 87 77 71 65 67 72 81 89 95 105 109 109 108 104 100 97 94 91 90 88 86 84 84 89 102 113 111 91 73 83 86 88 94 92 85 93 86 73 84 87 72
156 156 154 153 149 144 137 133 132 134 136 136 137 138 139 138 137 136 132 129 127 124 120 116 111 108 105 104 106 111 119 124 128 130 131 127 122 122 119 116 113 110 108 105 100 89 79 74 75 82 90 95 102 110 112 111 109 106 104 102 99 96 95 94 91 89 86 81 95 126 146 232 58 91 102 106 100 85 84 85 77 75 84 89 81
158 159 157 155 152 147 139 134 134 135 137 139 140 140 141 141 139 137 134 132 130 125 120 117 113 110 107 104 106 112 121 125 131 133 131 128 127 127 122 118 118 118 120 118 111 99 87 84 84 90 98 103 109 114 115 113 113 110 107 104 100 98 94 93 92 89 89 86 85 95 82 94 87 89 90 93 100 94 89 84 83 85 83 87 84
163 160 156 155 151 146 140 137 137 137 138 140 140 141 142 140 139 137 135 134 131 126 122 119 116 113 109 107 110 116 124 130 133 136 134 129 131 132 129 125 124 127 130 127 118 108 96 91 93 98 104 109 114 118 119 119 116 112 109 105 101 99 93 91 89 84 89 91 73 31 77 93 92 92 91 89 91 88 82 84 92 89 83 89 86
162 158 155 153 149 145 141 142 140 139 141 141 142 142 141 140 140 138 135 135 133 129 126 122 120 116 113 113 118 124 127 131 134 139 141 135 134 135 132 130 130 134 135 131 123 113 103 99 100 102 108 113 119 123 123 122 117 113 110 107 104 102 97 94 93 91 95 99 70 19 87 101 96 97 99 99 95 82 79 85 90 87 87 91 86
160 157 155 152 148 147 145 143 141 141 142 144 146 145 142 141 140 140 138 137 135 132 129 127 124 119 119 123 128 132 133 135 139 141 143 142 141 138 135 133 135 137 137 134 128 116 108 106 106 106 109 115 121 126 125 124 120 116 112 108 106 102 98 99 102 108 111 118 117 50 94 105 105 109 107 106 104 92 87 88 92 94 93 92 88
161 157 156 154 150 148 145 143 142 141 142 146 149 147 145 142 141 141 140 139 138 134 132 129 126 123 123 129 133 136 139 140 144 142 138 143 144 142 140 139 140 140 138 135 129 120 114 111 107 107 109 116 122 126 128 126 123 119 115 109 105 99 94 96 103 121 125 124 131 81 103 109 108 110 110 107 105 101 95 93 96 96 91 88 87
162 159 157 155 150 145 141 141 142 141 143 148 151 150 147 143 141 141 141 141 139 136 134 132 128 124 124 130 135 137 139 140 141 137 130 135 142 145 143 143 144 141 138 136 132 125 119 112 107 104 104 111 119 123 127 128 125 122 116 111 106 98 95 97 102 115 118 113 113 107 109 111 113 112 111 110 106 103 100 99 98 94 89 86 86
162 159 156 151 145 139 137 138 142 144 147 149 152 154 149 145 141 140 142 140 139 138 135 134 129 123 124 129 136 137 137 139 136 131 129 134 142 144 145 144 143 140 139 138 134 127 120 111 101 94 93 99 109 118 124 126 125 121 115 109 103 99 97 100 105 108 114 125 133 146 124 114 121 123 118 118 114 110 106 105 101 94 92 93 94
159 155 151 147 142 139 140 142 145 146 147 149 155 156 152 148 143 142 142 142 141 140 138 135 129 123 126 131 138 139 138 138 133 131 132 139 143 142 144 143 140 138 140 139 134 129 120 108 94 87 86 91 99 110 117 119 117 111 105 99 95 94 91 97 111 119 136 166 195 211 159 124 123 125 121 121 118 114 107 103 101 96 93 97 97
156 153 147 150 149 149 153 152 151 149 148 152 158 159 156 152 148 147 145 146 144 141 141 135 131 130 131 135 136 138 139 140 135 134 138 141 141 141 143 140 138 139 141 140 134 128 118 107 96 85 83 88 95 103 110 114 111 108 103 98 97 94 87 101 125 152 216 227 200 165 138 128 124 123 120 117 116 115 111 104 100 98 99 99 92
156 154 150 158 158 157 160 157 155 151 152 155 161 164 161 157 153 152 150 150 147 144 143 137 136 134 134 134 133 136 138 141 138 138 141 139 139 141 142 139 139 142 142 139 132 126 118 108 97 86 82 84 91 97 104 109 110 107 104 98 94 91 89 98 98 128 200 230 153 134 127 128 125 125 125 124 123 118 115 113 107 100 102 102 89
158 156 157 165 162 158 158 158 161 158 157 158 165 169 165 161 157 157 156 154 150 145 144 142 140 138 140 136 127 130 132 137 139 142 142 138 141 142 140 140 141 143 140 134 129 124 115 102 94 92 90 88 87 90 93 98 101 100 99 92 82 84 93 94 80 81 178 296 120 127 126 130 130 131 132 134 132 123 122 121 117 108 105 101 90
163 162 163 169 166 162 162 164 169 166 162 163 168 170 169 165 162 162 160 159 151 147 148 145 144 141 142 138 128 128 130 131 125 136 143 141 143 142 141 141 141 141 134 129 127 120 108 97 94 95 97 92 87 86 81 80 90 91 96 96 86 95 108 109 129 256 284 303 97 128 129 132 134 134 134 134 132 129 127 121 118 115 111 104 95
167 166 167 172 170 167 165 165 170 170 166 167 168 169 173 167 165 169 166 164 156 153 154 151 151 145 144 142 135 138 139 130 115 131 144 143 144 143 142 142 141 136 131 130 125 115 104 96 94 93 93 87 82 84 73 64 77 81 97 106 104 115 118 121 191 263 288 333 17 119 128 128 131 130 131 129 132 130 123 118 122 125 116 110 104
169 168 171 173 171 167 164 166 172 171 169 172 171 172 176 171 172 175 170 166 160 160 161 159 154 148 153 144 137 157 159 146 133 139 146 143 144 145 142 141 137 130 128 126 118 112 105 96 92 93 96 93 87 87 80 61 73 83 111 119 120 126 125 128 178 260 313 5 13 86 113 116 122 126 130 127 135 139 132 121 121 130 123 117 113
171 171 174 174 173 170 167 171 173 170 174 179 176 177 178 175 177 174 170 166 159 162 163 164 157 152 151 137 147 177 159 158 148 137 143 141 142 143 141 139 133 130 129 121 114 114 103 93 96 98 96 95 93 99 124 134 103 108 117 120 129 142 152 149 168 219 64 33 39 70 82 109 115 125 138 133 131 137 141 137 125 124 111 116 114
170 173 175 174 174 173 170 173 175 171 177 183 177 181 180 176 177 170 171 167 159 163 164 167 164 155 147 143 161 175 147 148 135 133 139 139 141 138 136 136 125 124 129 118 117 122 103 95 95 93 90 95 107 121 146 147 117 107 110 114 127 140 163 156 164 105 66 42 51 72 68 95 110 122 135 136 127 130 137 139 145 141 124 119 111
166 171 173 173 171 173 170 170 179 172 176 187 177 177 178 176 179 173 176 172 162 167 169 170 171 160 153 155 162 166 160 142 140 159 148 135 138 133 134 144 128 117 130 127 132 128 110 103 99 98 104 117 133 143 153 149 141 134 120 110 114 123 153 149 157 196 55 50 59 80 77 81 96 115 127 134 129 127 128 140 158 144 137 131 113
163 166 170 171 168 170 168 170 182 175 175 185 176 174 175 175 182 178 183 182 167 173 177 173 178 171 161 162 156 159 166 147 156 183 164 143 144 143 147 168 178 159 148 142 141 130 115 113 123 134 135 135 145 150 146 147 148 143 130 112 127 160 174 134 132 167 38 60 61 79 88 86 85 92 106 115 121 127 128 146 152 131 134 136 122
165 165 168 172 169 168 170 177 181 175 171 172 171 176 173 172 177 179 182 180 171 180 183 177 182 178 165 166 159 158 159 154 166 175 182 171 158 158 158 170 180 178 174 167 153 139 136 138 143 146 139 141 155 151 142 144 139 135 135 141 198 198 107 96 105 143 318 56 56 73 90 89 84 82 83 87 103 121 122 129 146 150 148 137 129
166 164 166 171 173 169 171 177 173 175 174 166 170 170 162 164 170 178 175 169 178 187 186 181 180 177 176 179 170 164 158 160 170 172 197 193 167 165 165 177 181 179 181 173 165 154 152 149 146 143 140 147 148 141 146 142 133 137 145 157 181 174 107 80 89 142 266 28 50 68 86 90 87 84 81 82 87 103 118 115 128 135 139 146 149
162 160 162 170 176 172 173 176 171 176 177 167 172 163 154 156 160 169 164 169 181 174 185 191 179 178 189 193 182 173 165 164 168 175 199 196 176 170 166 180 181 183 188 170 168 174 170 160 157 149 137 136 136 145 150 119 126 137 146 158 170 164 155 169 141 157 248 283 141 112 90 86 87 90 87 86 81 83 97 105 115 108 102 126 146
158 158 162 172 179 173 172 177 174 172 170 166 170 165 162 163 156 156 171 188 175 160 179 195 184 188 199 205 196 187 182 178 170 170 190 193 186 170 166 181 174 182 198 179 180 191 185 172 176 170 149 139 142 160 157 144 179 134 139 161 148 149 157 173 176 174 205 237 196 139 114 96 85 92 90 91 88 82 81 84 99 105 103 111 112
158 162 166 172 176 173 172 176 176 173 171 169 171 172 175 174 164 160 170 182 163 158 174 182 188 200 205 214 208 196 197 191 182 177 177 193 206 180 168 185 172 182 201 190 187 195 190 173 177 182 169 159 153 175 165 158 189 170 164 198 145 154 159 173 187 180 188 206 204 200 152 121 106 103 95 91 92 90 86 80 85 97 105 110 115
154 160 165 168 171 172 175 176 175 175 176 175 176 177 176 178 175 168 168 166 157 164 175 173 190 212 220 219 212 206 201 192 195 195 183 186 220 209 185 188 185 192 202 193 186 195 198 188 185 187 179 170 166 176 172 164 178 182 187 198 197 190 174 187 200 186 196 198 184 201 233 196 139 153 142 111 95 96 98 101 93 89 91 98 114
139 147 156 162 167 171 176 178 177 176 177 178 179 178 175 178 181 174 172 173 168 170 176 175 186 208 225 222 216 221 210 198 204 207 200 190 203 230 215 200 199 203 204 195 198 206 208 204 203 199 186 181 178 174 176 178 174 190 202 197 208 201 178 207 213 192 212 219 180 184 211 230 257 255 162 136 116 109 95 112 112 97 91 91 107
132 138 148 155 163 169 173 177 179 178 177 177 178 178 178 181 183 179 177 183 181 172 173 180 186 201 217 222 226 236 226 213 213 210 211 205 192 218 237 221 210 212 211 204 210 215 216 218 212 207 200 190 189 185 185 181 172 201 212 196 214 206 178 212 227 213 210 223 230 208 211 218 239 267 234 198 115 132 168 128 109 114 115 103 106
135 138 143 148 158 165 169 173 176 178 177 177 179 180 183 186 188 189 188 189 187 177 171 177 194 205 214 224 232 242 240 228 228 222 215 215 207 204 222 233 225 222 221 213 218 223 221 222 213 214 216 202 200 199 195 185 177 209 221 210 226 214 189 217 235 231 211 221 244 244 249 255 248 263 270 276 292 189 197 234 277 270 151 154 146
134 138 137 137 144 153 163 172 172 173 178 180 181 183 187 190 189 192 197 193 191 190 178 175 196 210 217 230 233 239 244 240 242 238 224 218 219 210 209 227 231 229 228 216 221 232 225 216 211 225 228 220 213 205 204 198 182 203 223 226 237 230 215 233 246 247 226 225 243 248 254 266 268 274 277 280 293 303 299 273 274 279 272 255 252
134 136 134 134 137 137 148 164 167 167 176 184 187 191 192 190 191 196 201 199 198 202 194 184 191 196 201 237 249 250 248 246 243 241 236 228 227 221 213 221 229 230 229 219 218 227 228 221 223 239 235 229 223 209 207 207 193 211 228 238 249 251 245 240 243 250 246 233 235 242 240 251 264 263 267 274 281 288 293 295 291 286 277 261 257
133 133 135 137 137 135 135 139 150 159 168 183 193 200 199 194 197 203 204 205 206 208 211 205 198 192 187 207 242 254 251 249 245 238 239 238 234 230 223 224 229 232 235 232 230 229 233 233 231 245 244 237 230 214 209 214 221 227 231 242 252 259 263 256 246 245 247 240 232 237 230 237 259 260 261 267 264 269 281 290 297 296 289 272 264
133 136 142 141 138 136 135 132 136 142 142 162 186 201 213 211 210 213 212 212 210 211 215 216 216 214 210 212 225 240 244 247 248 241 236 239 239 234 231 230 230 236 240 243 245 243 244 241 233 241 247 246 238 221 221 232 238 245 244 242 245 252 257 261 262 252 245 239 229 232 226 226 246 258 265 268 253 249 262 277 289 295 296 290 285
135 138 139 140 142 141 137 134 133 135 137 144 157 174 202 216 218 223 222 218 214 213 218 226 229 224 224 230 233 237 236 234 241 241 236 238 240 237 235 235 235 238 239 243 246 241 246 252 245 240 240 250 255 240 234 232 231 248 256 246 251 256 253 254 256 247 240 244 246 244 236 236 244 254 266 274 266 258 257 261 270 282 288 285 282
137 137 133 135 141 144 142 139 137 136 139 143 146 157 162 178 210 223 224 223 222 224 229 236 238 232 233 240 240 241 238 229 229 238 243 242 239 240 239 236 239 240 238 243 245 238 239 247 248 241 233 247 268 265 252 245 239 243 249 252 260 256 256 262 256 244 242 246 253 257 254 259 254 246 251 253 257 262 261 257 259 267 276 280 278
141 137 132 132 136 137 136 138 142 139 139 143 151 165 165 166 196 213 223 229 232 239 244 247 248 245 243 244 241 239 239 235 230 231 242 248 242 241 245 241 240 244 241 241 244 242 238 239 245 243 233 237 255 262 256 254 252 251 256 256 250 253 264 271 255 248 257 245 234 238 239 247 248 244 246 242 239 242 245 253 251 250 263 275 274
152 144 136 138 138 128 123 126 126 126 132 143 154 170 173 179 198 212 233 243 243 253 261 261 260 255 249 247 244 239 237 238 238 234 235 245 246 242 246 247 240 240 242 241 242 244 242 241 244 244 239 237 242 248 248 246 242 241 254 254 243 256 272 280 267 263 272 257 236 230 224 225 234 242 252 256 251 246 244 250 251 250 260 273 276
160 151 145 147 147 136 130 129 121 114 114 119 128 145 167 186 205 220 234 247 251 261 272 270 267 264 258 252 248 243 238 235 237 238 234 238 246 244 243 245 242 237 239 241 241 244 246 243 242 241 238 239 241 244 244 242 235 228 243 255 252 256 256 259 272 274 273 257 241 237 230 227 235 246 257 259 256 260 262 259 258 262 268 274 281
158 152 150 150 148 138 132 131 137 139 116 106 110 117 142 176 200 218 231 243 251 253 258 267 267 266 264 259 255 251 246 240 237 238 235 230 235 244 245 244 245 240 237 242 243 244 247 243 238 234 231 238 242 243 241 241 240 229 228 249 253 253 250 248 255 262 268 261 245 235 231 231 237 246 255 252 245 254 261 265 264 266 276 288 289
159 157 156 150 144 138 134 133 137 136 120 119 121 116 127 164 199 217 229 241 250 253 251 259 267 268 266 264 264 261 253 247 242 239 237 229 224 235 246 247 246 243 239 241 242 242 245 243 234 231 233 240 241 240 238 238 240 234 229 249 254 250 251 253 253 252 258 263 258 245 231 233 238 242 255 255 242 239 237 250 258 255 265 275 268
171 168 160 152 148 146 140 137 143 142 139 149 143 141 160 180 216 229 238 244 246 250 248 249 261 268 269 267 269 270 260 250 246 242 240 236 227 227 238 245 245 243 241 239 239 240 243 241 233 231 235 239 239 239 235 231 234 235 233 249 255 250 247 250 250 247 246 251 257 259 254 246 248 250 258 260 237 224 226 243 250 240 240 250 250
183 181 173 163 157 150 139 144 165 164 162 185 169 174 198 200 221 231 241 249 247 248 249 246 251 261 268 269 270 272 266 257 251 248 244 239 234 229 231 238 241 242 242 239 239 241 242 241 236 235 236 236 238 240 238 230 231 233 231 241 251 248 245 247 247 245 249 249 252 267 276 261 258 263 246 238 224 220 228 245 249 233 222 241 258